Location: D�nning
(49.2479°N, 12.8491°E)
Time: 06:09:41
(UTC+00:00)

Cosmos 1844 Rocket - Pass Details

Date: 18 September 2020
Orbit: 823 x 846 km, 71.0° (Epoch: 27 October)

Event Time Altitude Azimuth Distance (km) Brightness Sun altitude
Rises 17:57:15 0° 157° (SSE) 3,346 5.5 -7.8°
Reaches altitude 10° 18:00:29 10° 137° (SE) 2,421 4.6 -8.3°
Maximum altitude 18:03:55 17° 99° (E) 1,978 4.0 -8.8°
Drops below altitude 10° 18:07:23 10° 60° (ENE) 2,438 4.7 -9.4°
Sets 18:10:38 0° 41° (NE) 3,381 5.6 -9.9°
